Regional Weather Roundup
Issued by NWS

Home | Current Version | Previous Version | Graphics & Text | Print | Product List | Glossary On
Versions: 1 2 3 4 5 6 7 8 9 10 11 12 13 14 15 16 17 18 19 20 21 22 23 24 25 26 27 28 29 30 31 32 33 34 35 36 37 38 39 40 41 42 43 44 45 46 47 48 49 50
000
ASUS43 KOAX 221710
RWRNE

WEATHER ROUNDUP FOR NEBRASKA
NATIONAL WEATHER SERVICE OMAHA NE
1200 PM CDT FRI SEP 22 2017

NOTES: SATELLITE DATA IS BEING USED TO AUGMENT CLOUD COVER ABOVE
       12000 FEET.
       "FAIR" INDICATES FEW OR NO CLOUDS BELOW 12,000 FEET WITH NO
       SIGNIFICANT WEATHER AND/OR OBSTRUCTIONS TO VISIBILITY.


NEZ001>004-019>022-054>056-221800-
NEBRASKA PANHANDLE

CITY           SKY/WX    TMP DP  RH WIND       PRES   REMARKS
SCOTTSBLUFF    SUNNY     60  41  49 CALM      29.84S
ALLIANCE       SUNNY     64  44  48 VRB6      29.82F
CHADRON        MOSUNNY   60  38  43 NW6       29.83F
GORDON         PTSUNNY   59  44  58 NW16G24   29.82S
KIMBALL        SUNNY     60  43  54 N9        29.85S
SIDNEY         SUNNY     63  43  48 N8        29.83F
$$

NEZ057>060-069>072-079>082-221800-
SOUTHWEST NEBRASKA

CITY           SKY/WX    TMP DP  RH WIND       PRES   REMARKS
NORTH PLATTE   SUNNY     87  57  35 S14       29.73F
IMPERIAL       SUNNY     80  40  23 SW13      29.78S
LEXINGTON      SUNNY     91  58  32 S23       29.75S
MCCOOK         LGT RAIN  91  57  31 SW23G31   29.75S
OGALLALA       SUNNY     72  42  34 NW5       29.78F
$$

NEZ005>010-023>029-035>040-094-221800-
NORTH CENTRAL NEBRASKA

CITY           SKY/WX    TMP DP  RH WIND       PRES   REMARKS
VALENTINE      SUNNY     70  49  47 NW12      29.76R
AINSWORTH      SUNNY     69  51  53 NW14G20   29.76R
BROKEN BOW     SUNNY     88  61  40 S22G29    29.74S
O`NEILL        SUNNY     86  66  49 S23G31    29.71S
ORD            SUNNY     86  62  44 S21G30    29.72F
THEDFORD       SUNNY     74  54  48 W10       29.77R
$$

NEZ041-046>049-061>064-073>077-083>087-221800-
SOUTH CENTRAL NEBRASKA

CITY           SKY/WX    TMP DP  RH WIND       PRES   REMARKS
GRAND ISLAND   SUNNY     89  66  46 S22G33    29.78S HX  91
AURORA         SUNNY     87  65  48 S20G28    29.79F
HASTINGS       SUNNY     89  63  41 S16G28    29.80F HX  90
HEBRON         SUNNY     89  67  49 S14G25    29.84S HX  92
HOLDREGE       SUNNY     88  57  35 S28G38    29.78S
KEARNEY        SUNNY     91  63  39 S26G40    29.76S HX  92
YORK           SUNNY     88  66  48 S20       29.81F HX  90
$$

NEZ011>018-030>034-042>045-221800-
NORTHEAST NEBRASKA

CITY           SKY/WX    TMP DP  RH WIND       PRES   REMARKS
NORFOLK        SUNNY     88  68  51 S20G32    29.73F HX  91
ALBION         SUNNY     88  69  52 S18G29    29.75F HX  92
BLAIR          SUNNY     87  70  56 S16G24    29.85R HX  92
COLUMBUS       SUNNY     89  69  51 S13G22    29.79F HX  93
FREMONT        SUNNY     88  68  52 S18G25    29.83S HX  91
TEKAMAH        SUNNY     88  69  53 S20G25    29.82S HX  92
WAYNE          SUNNY     85  70  61 S24G30    29.76F
$$

NEZ050>053-065>068-078-088>093-221800-
SOUTHEAST NEBRASKA

CITY           SKY/WX    TMP DP  RH WIND       PRES   REMARKS
LINCOLN        SUNNY     90  68  48 S22G29    29.83S HX  94
OMAHA EPPLEY   MOSUNNY   88  70  55 S22G29    29.84F HX  93
BEATRICE       SUNNY     90  69  50 S18G26    29.85F HX  94
FALLS CITY     SUNNY     87  70  56 S13G23    29.90F HX  92
NEBRASKA CITY  SUNNY     87  72  59 S17G25    29.88S HX  93
PLATTSMOUTH    SUNNY     88  71  56 SE17G24   29.86F HX  93
$$

NEZ044-045-051>053-067-221800-
OMAHA AREA

CITY           SKY/WX    TMP DP  RH WIND       PRES   REMARKS
OMAHA EPPLEY   MOSUNNY   88  70  55 S22G29    29.84F HX  93
BLAIR          SUNNY     87  70  56 S16G24    29.85R HX  92
FREMONT        SUNNY     88  68  52 S18G25    29.83S HX  91
MILLARD        SUNNY     91  71  53 S12G17    29.84S HX  97
OFFUTT AFB     SUNNY     88  70  56 SE14      29.85S HX  93
PLATTSMOUTH    SUNNY     88  71  56 SE17G24   29.86F HX  93
WAHOO          FAIR      90  66  44 S16G25    29.83S HX  92
$$



USA.gov is the U.S. government's official web portal to all federal, state and local government web resources and services.